Regional Weather Roundup
Issued by NWS Albany, NY

Home | Current Version | Previous Version | Graphics & Text | Print | Product List | Glossary Off
Versions: 1 2 3 4 5 6 7 8 9 10 11 12 13 14 15 16 17 18 19 20 21 22 23 24 25 26 27 28 29 30 31 32 33 34 35 36 37 38 39 40 41 42 43 44 45 46 47 48 49 50

279
ASUS41 KALY 300910
RWRALY

NEW YORK STATE HOURLY WEATHER ROUNDUP
NATIONAL WEATHER SERVICE ALBANY NY
500 AM EDT THU MAR 30 2017

NOTE: "FAIR" INDICATES FEW OR NO CLOUDS BELOW 12,000 FEET WITH NO
SIGNIFICANT WEATHER AND/OR NO OBSTRUCTIONS TO VISIBILITY.

NYZ032-033-038>043-046>054-057>066-NYZ062>081-082-084-301000-
EAST


CITY           SKY/WX    TMP DP  RH WIND       PRES   REMARKS
ALBANY         PTCLDY    30  20  66 NW6       30.24S WCI  24
GLENS FALLS    PTCLDY    27  20  75 NW3       30.23S
POUGHKEEPSIE   PTCLDY    26  22  84 CALM      30.23R
NEWBURGH       CLEAR     30  25  80 W6        30.23R WCI  24
MONTGOMERY     CLOUDY    30  24  78 CALM      30.22R
WHITE PLAINS   CLEAR     32  23  69 CALM      30.21R
ISLIP          CLEAR     34  25  69 NW6       30.21R WCI  29
NEW YORK CITY  CLEAR     42  23  46 N7        30.23R
CENTRAL PARK   CLEAR     39  22  50 NW3       30.25R
$$

NYZ005>009-017-018-044>046-055-056-301000-
CENTRAL


CITY           SKY/WX    TMP DP  RH WIND       PRES   REMARKS
FULTON         CLEAR     26  22  84 CALM      30.29R
SYRACUSE       PTCLDY    26  23  88 W5        30.28R WCI  20
ROME           CLEAR     23  22  96 CALM      30.29R
ELMIRA         PTCLDY    27  22  81 CALM      30.27R
BINGHAMTON     CLEAR     28  21  75 NW6       30.22R WCI  22
MONTICELLO     CLOUDY    28  21  74 NW5       30.21R WCI  23
$$

NYZ026>034-041>043-087-301000-
NORTH


CITY           SKY/WX    TMP DP  RH WIND       PRES   REMARKS
WATERTOWN      CLEAR     18  17  96 CALM      30.30R
FORT DRUM      NOT AVBL
MASSENA        CLEAR     26  21  81 N3        30.30R
SARANAC LAKE   CLEAR     21  16  81 CALM      30.18R
PLATTSBURGH    CLOUDY    33  21  61 N12       30.26R WCI  24
$$

NYZ001>004-010>016-019>021-085-301000-
WEST


CITY           SKY/WX    TMP DP  RH WIND       PRES   REMARKS
NIAGARA FALLS  CLOUDY    37  25  61 E14       30.25F WCI  28
BUFFALO        CLOUDY    35  26  69 E12       30.25F WCI  27
DUNKIRK        CLOUDY    36  27  69 E10       30.22F WCI  28
JAMESTOWN      MOCLDY    36  23  60 E7        30.16F WCI  30
WELLSVILLE     CLOUDY    29  24  82 E3        30.20F
ROCHESTER      CLOUDY    33  25  72 E5        30.29F WCI  29
PENN YAN       CLOUDY    30  24  78 SW3       30.28R
$$

             KEY
       WCI = WIND CHILL INDEX
       VSB = VISIBILITY
       HX  = HEAT INDEX
$$




USA.gov is the U.S. government's official web portal to all federal, state and local government web resources and services.